YO6RK-13 Weather Reports


time (UTC)temp
C
wind
direction
speed
KPH
gust
KPH
rain 1hr
cm
rain 24hr
cm
rain mn
cm
humidity
%
barometer
mb
20260507102033 25 248 0.0 0.0 0.00 0.00 0.00 28 1012.3
20260507101517 26 225 0.0 0.0 0.00 0.00 0.00 29 1012.4
20260507101025 25 113 0.0 0.0 0.00 0.00 0.00 29 1012.4
20260507100533 26 293 0.0 0.0 0.00 0.00 0.00 31 1012.4
20260507095515 25 0 1.6 1.6 0.00 0.00 0.00 31 1012.4
20260507095022 25 293 0.0 0.0 0.00 0.00 0.00 35 1012.5
20260507094525 25 0 8.0 8.0 0.00 0.00 0.00 35 1012.5
20260507094017 25 338 0.0 0.0 0.00 0.00 0.00 33 1012.6
20260507093533 25 338 0.0 0.0 0.00 0.00 0.00 35 1012.6
20260507093033 25 180 0.0 0.0 0.00 0.00 0.00 35 1012.7
20260507092519 25 293 0.0 0.0 0.00 0.00 0.00 37 1012.8
20260507091027 24 0 0.0 0.0 0.00 0.00 0.00 39 1013.0
20260507090526 24 0 0.0 0.0 0.00 0.00 0.00 40 1013.0
20260507090009 23 0 0.0 0.0 0.00 0.00 0.00 42 1012.9
20260507085526 23 0 0.0 0.0 0.00 0.00 0.00 43 1012.9
20260507085025 23 0 4.8 4.8 0.00 0.00 0.00 46 1012.9
20260507084533 23 293 0.0 0.0 0.00 0.00 0.00 47 1013.0
20260507084048 22 338 4.8 4.8 0.00 0.00 0.00 47 1013.0
20260507083023 21 315 0.0 0.0 0.00 0.00 0.00 48 1013.2
20260507082015 21 338 0.0 0.0 0.00 0.00 0.00 54 1013.2
20260507081512 21 180 0.0 0.0 0.00 0.00 0.00 54 1013.2
20260507081030 20 315 0.0 0.0 0.00 0.00 0.00 55 1013.3
20260507080020 20 338 0.0 0.0 0.00 0.00 0.00 55 1013.4
20260507075035 20 0 1.6 11.3 0.00 0.00 0.00 53 1013.4
20260507074034 20 203 0.0 0.0 0.00 0.00 0.00 52 1013.5
20260507073518 20 180 0.0 0.0 0.00 0.00 0.00 53 1013.6
20260507072516 19 315 0.0 0.0 0.00 0.00 0.00 56 1013.6
20260507072023 18 315 0.0 0.0 0.00 0.00 0.00 59 1013.4
20260507071538 18 315 0.0 0.0 0.00 0.00 0.00 58 1013.6
20260507070512 17 293 0.0 0.0 0.00 0.00 0.00 60 1013.6
20260507070014 17 315 0.0 0.0 0.00 0.00 0.00 61 1013.6
20260507065529 17 23 8.0 8.0 0.00 0.00 0.00 59 1013.7
20260507065036 17 0 0.0 0.0 0.00 0.00 0.00 60 1013.6
20260507064527 17 45 0.0 4.8 0.00 0.00 0.00 60 1013.6
20260507064034 18 225 0.0 0.0 0.00 0.00 0.00 59 1013.6
20260507063510 17 23 0.0 0.0 0.00 0.00 0.00 60 1013.7
20260507063016 17 225 0.0 0.0 0.00 0.00 0.00 59 1013.7
20260507062540 16 0 0.0 0.0 0.00 0.00 0.00 62 1013.8
20260507062023 16 338 0.0 0.0 0.00 0.00 0.00 62 1013.8
20260507061539 16 248 0.0 0.0 0.00 0.00 0.00 61 1013.8
20260507060538 16 315 0.0 0.0 0.00 0.00 0.00 62 1013.9
20260507060020 15 0 0.0 0.0 0.00 0.00 0.00 65 1013.8
20260507055522 15 338 0.0 1.6 0.00 0.00 0.00 65 1013.9
20260507054533 14 315 0.0 0.0 0.00 0.00 0.00 67 1013.9
20260507054043 14 23 0.0 0.0 0.00 0.00 0.00 68 1013.9
20260507053542 13 338 0.0 0.0 0.00 0.00 0.00 69 1014.0
20260507053034 13 315 0.0 3.2 0.00 0.00 0.00 70 1013.9
20260507052517 13 338 0.0 0.0 0.00 0.00 0.00 71 1013.8
20260507052014 13 338 0.0 0.0 0.00 0.00 0.00 73 1013.8
20260507051539 12 338 0.0 1.6 0.00 0.00 0.00 73 1013.9
20260507051023 12 203 0.0 0.0 0.00 0.00 0.00 73 1013.9
20260507050521 12 293 0.0 0.0 0.00 0.00 0.00 74 1013.9
20260507050029 12 293 0.0 0.0 0.00 0.00 0.00 75 1014.0
20260507045528 12 338 11.3 11.3 0.00 0.00 0.00 76 1013.9
20260507045035 11 338 0.0 6.4 0.00 0.00 0.00 76 1013.9
20260507044527 11 203 0.0 0.0 0.00 0.00 0.00 77 1014.0
20260507043530 11 0 0.0 0.0 0.00 0.00 0.00 79 1014.0
20260507043015 10 315 0.0 0.0 0.00 0.00 0.00 80 1013.9
20260507042037 10 293 0.0 3.2 0.00 0.00 0.00 81 1013.9
20260507041529 10 315 0.0 0.0 0.00 0.00 0.00 81 1013.8
20260507041018 10 293 0.0 0.0 0.00 0.00 0.00 81 1013.9
20260507040531 10 315 0.0 0.0 0.00 0.00 0.00 81 1013.8
20260507040034 10 0 3.2 8.0 0.00 0.00 0.00 81 1013.9
20260507035530 10 293 0.0 4.8 0.00 0.00 0.00 81 1013.8
20260507035043 10 338 0.0 0.0 0.00 0.00 0.00 81 1013.7
20260507034540 10 293 0.0 1.6 0.00 0.00 0.00 81 1013.7
20260507033513 10 225 0.0 0.0 0.00 0.00 0.00 81 1013.6
20260507032528 10 293 0.0 0.0 0.00 0.00 0.00 81 1013.6
20260507032011 9 338 9.7 9.7 0.00 0.00 0.00 81 1013.5
20260507031531 9 338 0.0 0.0 0.00 0.00 0.00 83 1013.5
20260507031026 9 315 0.0 0.0 0.00 0.00 0.00 83 1013.5
20260507030528 9 293 0.0 0.0 0.00 0.00 0.00 83 1013.6
20260507030032 9 293 0.0 0.0 0.00 0.00 0.00 83 1013.4
20260507025518 9 293 0.0 0.0 0.00 0.00 0.00 83 1013.4
20260507025023 9 293 0.0 0.0 0.00 0.00 0.00 83 1013.3
20260507024527 9 293 0.0 0.0 0.00 0.00 0.00 82 1013.3
20260507024030 9 293 0.0 0.0 0.00 0.00 0.00 81 1013.3
20260507023513 10 338 0.0 0.0 0.00 0.00 0.00 81 1013.3
20260507022043 10 293 0.0 0.0 0.00 0.00 0.00 80 1013.3
20260507021526 10 338 0.0 0.0 0.00 0.00 0.00 81 1013.2
20260507021017 10 315 0.0 0.0 0.00 0.00 0.00 81 1013.1
20260507020532 10 338 0.0 0.0 0.00 0.00 0.00 81 1013.3
20260507020021 10 315 0.0 0.0 0.00 0.00 0.00 80 1013.1
20260507015521 10 315 0.0 0.0 0.00 0.00 0.00 81 1013.1
20260507015012 10 315 0.0 0.0 0.00 0.00 0.00 80 1013.1
20260507014527 10 293 1.6 1.6 0.00 0.00 0.00 80 1013.2
20260507014026 10 0 3.2 3.2 0.00 0.00 0.00 80 1013.2
20260507013526 10 338 0.0 0.0 0.00 0.00 0.00 80 1013.2
20260507013041 10 315 0.0 0.0 0.00 0.00 0.00 80 1013.3
20260507012023 10 0 0.0 0.0 0.00 0.00 0.00 80 1013.3
20260507011532 10 315 0.0 0.0 0.00 0.00 0.00 79 1013.2
20260507010527 11 338 0.0 0.0 0.00 0.00 0.00 77 1013.2
20260507010012 11 293 0.0 0.0 0.00 0.00 0.00 77 1013.3
20260507005533 11 338 0.0 0.0 0.00 0.00 0.00 76 1013.3
20260507005031 11 338 4.8 4.8 0.00 0.00 0.00 75 1013.2
20260507004516 11 315 0.0 0.0 0.00 0.00 0.00 77 1013.1
20260507003524 11 338 0.0 0.0 0.00 0.00 0.00 77 1013.0
20260507003010 11 315 3.2 3.2 0.00 0.00 0.00 77 1013.0
20260507002522 11 315 0.0 0.0 0.00 0.00 0.00 77 1013.1
20260507002015 11 315 0.0 0.0 0.00 0.00 0.00 78 1013.0
20260507001527 11 338 0.0 0.0 0.00 0.00 0.00 78 1012.9
20260507001012 11 338 0.0 0.0 0.00 0.00 0.00 77 1012.9
20260507000519 11 315 0.0 0.0 0.00 0.00 0.00 76 1013.0
20260507000035 12 0 0.0 0.0 0.00 0.00 0.00 75 1012.9
20260506235518 12 315 0.0 0.0 0.00 0.00 0.00 74 1012.9
20260506234518 12 0 0.0 0.0 0.00 0.00 0.00 74 1013.0
20260506234033 12 315 0.0 0.0 0.00 0.00 0.00 74 1012.9
20260506233532 12 0 0.0 0.0 0.00 0.00 0.00 74 1013.0
20260506232013 12 315 0.0 0.0 0.00 0.00 0.00 72 1012.8
20260506231028 12 293 0.0 4.8 0.00 0.00 0.00 73 1012.8
20260506230529 12 293 0.0 0.0 0.00 0.00 0.00 75 1012.8
20260506230021 12 315 0.0 0.0 0.00 0.00 0.00 75 1012.7
20260506225528 12 338 0.0 0.0 0.00 0.00 0.00 75 1012.7
20260506225034 12 315 3.2 3.2 0.00 0.00 0.00 74 1012.7
20260506224518 12 338 0.0 0.0 0.00 0.00 0.00 73 1012.7
20260506223524 13 315 0.0 0.0 0.00 0.00 0.00 71 1012.7
20260506223022 13 0 0.0 0.0 0.00 0.00 0.00 70 1012.6
20260506222529 13 293 0.0 0.0 0.00 0.00 0.00 69 1012.7
20260506222029 13 338 3.2 3.2 0.00 0.00 0.00 68 1012.7
20260506221020 13 338 0.0 0.0 0.00 0.00 0.00 68 1012.6
20260506220519 13 315 0.0 0.0 0.00 0.00 0.00 67 1012.7
20260506220016 14 0 0.0 0.0 0.00 0.00 0.00 66 1012.6
20260506215532 14 338 0.0 0.0 0.00 0.00 0.00 65 1012.6
20260506215021 15 0 0.0 0.0 0.00 0.00 0.00 64 1012.6
20260506214530 15 203 0.0 0.0 0.00 0.00 0.00 64 1012.6
20260506214012 15 315 0.0 0.0 0.00 0.00 0.00 64 1012.6
20260506213035 15 315 0.0 0.0 0.00 0.00 0.00 65 1012.5
20260506212517 15 0 0.0 0.0 0.00 0.00 0.00 64 1012.5
20260506212026 15 338 0.0 0.0 0.00 0.00 0.00 64 1012.5
20260506211517 15 315 0.0 0.0 0.00 0.00 0.00 65 1012.4
20260506211032 15 0 0.0 0.0 0.00 0.00 0.00 64 1012.3
20260506205514 15 338 0.0 0.0 0.00 0.00 0.00 65 1012.3
20260506205030 15 0 0.0 0.0 0.00 0.00 0.00 65 1012.3
20260506204027 15 338 6.4 6.4 0.00 0.00 0.00 65 1012.2
20260506203527 15 315 0.0 0.0 0.00 0.00 0.00 65 1012.2
20260506203030 15 315 0.0 0.0 0.00 0.00 0.00 65 1012.2
20260506202039 15 315 0.0 0.0 0.00 0.00 0.00 65 1012.0
20260506201515 15 315 0.0 0.0 0.00 0.00 0.00 63 1012.0
20260506201030 15 315 0.0 0.0 0.00 0.00 0.00 62 1012.1
20260506200028 16 315 0.0 0.0 0.00 0.00 0.00 61 1012.0
20260506195535 16 0 0.0 0.0 0.00 0.00 0.00 60 1012.1
20260506195027 16 270 0.0 0.0 0.00 0.00 0.00 60 1012.0
20260506194542 16 338 0.0 0.0 0.00 0.00 0.00 59 1011.9
20260506194034 16 338 0.0 0.0 0.00 0.00 0.00 58 1011.9
20260506193515 17 338 0.0 0.0 0.00 0.00 0.00 57 1011.9
20260506192520 17 158 0.0 0.0 0.00 0.00 0.00 56 1011.8
20260506192028 17 338 0.0 0.0 0.00 0.00 0.00 55 1011.9
20260506191510 18 180 0.0 0.0 0.00 0.00 0.00 52 1011.9
20260506191027 18 203 0.0 0.0 0.00 0.00 0.00 52 1011.8
20260506184540 18 203 0.0 0.0 0.00 0.00 0.00 52 1011.7
20260506184024 18 203 0.0 0.0 0.00 0.00 0.00 51 1011.7
20260506183514 18 158 0.0 0.0 0.00 0.00 0.00 49 1011.6
20260506183031 18 180 0.0 0.0 0.00 0.00 0.00 50 1011.6
20260506182530 18 293 0.0 0.0 0.00 0.00 0.00 50 1011.5
20260506181530 17 270 0.0 0.0 0.00 0.00 0.00 53 1011.4
20260506181030 17 338 0.0 0.0 0.00 0.00 0.00 53 1011.3
20260506180514 18 338 0.0 0.0 0.00 0.00 0.00 52 1011.2
20260506175529 18 0 0.0 0.0 0.00 0.00 0.00 50 1011.2
20260506175019 18 0 0.0 0.0 0.00 0.00 0.00 50 1011.2
20260506174511 18 0 0.0 0.0 0.00 0.00 0.00 50 1011.1
20260506174017 19 338 0.0 0.0 0.00 0.00 0.00 49 1011.0
20260506173524 19 180 0.0 0.0 0.00 0.00 0.00 46 1010.9
20260506172522 20 180 0.0 0.0 0.00 0.00 0.00 47 1011.0
20260506172039 20 180 0.0 0.0 0.00 0.00 0.00 44 1010.9
20260506171539 20 180 0.0 0.0 0.00 0.00 0.00 42 1010.9
20260506171038 21 180 0.0 0.0 0.00 0.00 0.00 41 1010.9
20260506170529 21 180 0.0 0.0 0.00 0.00 0.00 42 1011.0
20260506170021 21 180 0.0 0.0 0.00 0.00 0.00 41 1010.9
20260506165011 21 180 0.0 0.0 0.00 0.00 0.00 39 1010.7
20260506164527 22 180 0.0 0.0 0.00 0.00 0.00 38 1010.8
20260506164026 22 158 0.0 0.0 0.00 0.00 0.00 39 1010.7
20260506163534 22 158 0.0 0.0 0.00 0.00 0.00 39 1010.8
20260506162532 22 158 0.0 0.0 0.00 0.00 0.00 41 1010.8
20260506162032 21 180 0.0 0.0 0.00 0.00 0.00 41 1010.8
20260506161523 21 180 0.0 0.0 0.00 0.00 0.00 41 1010.8
20260506161030 22 180 0.0 0.0 0.00 0.00 0.00 41 1010.8
20260506160513 22 180 0.0 0.0 0.00 0.00 0.00 41 1010.7
20260506154512 23 180 0.0 0.0 0.00 0.00 0.00 35 1010.8
20260506154032 23 180 0.0 0.0 0.00 0.00 0.00 37 1010.7
20260506153023 23 180 0.0 0.0 0.00 0.00 0.00 37 1010.8
20260506152532 23 180 0.0 0.0 0.00 0.00 0.00 37 1010.9
20260506151523 23 180 0.0 0.0 0.00 0.00 0.00 36 1010.9
20260506151020 23 203 0.0 0.0 0.00 0.00 0.00 36 1011.0
20260506150530 23 180 0.0 0.0 0.00 0.00 0.00 38 1010.9
20260506150013 23 180 0.0 0.0 0.00 0.00 0.00 38 1011.1
20260506145031 24 203 0.0 0.0 0.00 0.00 0.00 36 1010.9
20260506144533 24 180 0.0 6.4 0.00 0.00 0.00 33 1010.9
20260506144041 24 203 0.0 0.0 0.00 0.00 0.00 33 1010.8
20260506143525 25 180 4.8 4.8 0.00 0.00 0.00 32 1011.0
20260506143015 25 180 0.0 0.0 0.00 0.00 0.00 33 1010.9
20260506142523 24 158 0.0 0.0 0.00 0.00 0.00 33 1010.9
20260506142030 25 180 0.0 1.6 0.00 0.00 0.00 34 1010.8
20260506141530 25 180 0.0 6.4 0.00 0.00 0.00 35 1010.7
20260506141042 25 203 3.2 6.4 0.00 0.00 0.00 36 1010.8
20260506135532 25 180 3.2 3.2 0.00 0.00 0.00 35 1010.7
20260506134543 25 180 0.0 11.3 0.00 0.00 0.00 35 1010.7
20260506134027 25 158 0.0 0.0 0.00 0.00 0.00 37 1010.7
20260506133529 25 180 0.0 0.0 0.00 0.00 0.00 37 1010.7
20260506133039 25 180 0.0 0.0 0.00 0.00 0.00 37 1010.7
20260506132540 25 180 0.0 0.0 0.00 0.00 0.00 31 1010.7
20260506132016 25 338 0.0 0.0 0.00 0.00 0.00 25 1010.7
20260506131533 25 338 0.0 0.0 0.00 0.00 0.00 24 1010.7
20260506131050 25 23 0.0 0.0 0.00 0.00 0.00 26 1010.5
20260506130520 25 0 0.0 0.0 0.00 0.00 0.00 24 1010.7
20260506130027 25 0 0.0 0.0 0.00 0.00 0.00 24 1010.8
20260506125534 25 0 4.8 4.8 0.00 0.00 0.00 25 1010.8
20260506125042 25 293 8.0 8.0 0.00 0.00 0.00 24 1010.8
20260506124520 25 293 0.0 8.0 0.00 0.00 0.00 23 1010.8
20260506124019 25 0 0.0 0.0 0.00 0.00 0.00 24 1010.8
20260506123536 25 0 0.0 0.0 0.00 0.00 0.00 24 1010.9
20260506123050 25 0 0.0 0.0 0.00 0.00 0.00 23 1010.9
20260506121527 26 0 0.0 4.8 0.00 0.00 0.00 24 1010.9
20260506121043 26 315 0.0 0.0 0.00 0.00 0.00 23 1010.9
20260506120509 26 225 0.0 0.0 0.00 0.00 0.00 24 1011.0
20260506120034 25 0 0.0 0.0 0.00 0.00 0.00 25 1011.0
20260506115517 25 338 0.0 0.0 0.00 0.00 0.00 24 1011.1
20260506115021 26 0 0.0 0.0 0.00 0.00 0.00 24 1011.2
20260506114539 26 0 0.0 0.0 0.00 0.00 0.00 24 1011.3
20260506114038 28 0 0.0 0.0 0.00 0.00 0.00 26 1011.4
20260506112517 26 180 0.0 0.0 0.00 0.00 0.00 28 1011.4
20260506112034 25 315 0.0 0.0 0.00 0.00 0.00 28 1011.4
20260506111549 25 315 0.0 0.0 0.00 0.00 0.00 29 1011.4
20260506110509 26 0 0.0 0.0 0.00 0.00 0.00 27 1011.5
20260506110035 26 225 0.0 0.0 0.00 0.00 0.00 29 1011.6
20260506105542 26 0 0.0 0.0 0.00 0.00 0.00 30 1011.6
20260506105033 26 315 0.0 0.0 0.00 0.00 0.00 30 1011.8
20260506104540 25 338 0.0 0.0 0.00 0.00 0.00 30 1011.8
20260506104016 26 45 0.0 0.0 0.00 0.00 0.00 30 1011.9
20260506103023 25 0 0.0 0.0 0.00 0.00 0.00 33 1011.9
20260506102522 25 0 0.0 0.0 0.00 0.00 0.00 33 1012.0